Location: Newark
(35.9031°N, 139.7175°E)
Time: 13:26:13
(UTC+00:00)

Transit 2A - Pass Details

Date: 03 June 2020
Orbit: 592 x 967 km, 66.7° (Epoch: 06 July)

Event Time Altitude Azimuth Distance (km) Brightness Sun altitude
Rises 10:38:56 0° 347° (NNW) 3,557 10.3 -8.6°
Reaches altitude 10° 10:42:26 10° 7° (N) 2,659 9.2 -9.2°
Maximum altitude 10:46:25 17° 47° (NE) 2,211 8.3 -9.8°
Drops below altitude 10° 10:50:26 10° 86° (E) 2,703 8.4 -10.5°
Enters shadow 10:51:32 - 93° (E) 2,961 8.5 -10.6°
